Regional Weather Roundup
Issued by NWS State College, PA

Home | Current Version | Previous Version | Graphics & Text | Print | Product List | Glossary Off
Versions: 1 2 3 4 5 6 7 8 9 10 11 12 13 14 15 16 17 18 19 20 21 22 23 24 25 26 27 28 29 30 31 32 33 34 35 36 37 38 39 40 41 42 43 44 45 46 47 48 49 50

000
ASUS41 KCTP 250510
RWRCTP

REGIONAL WEATHER ROUNDUP
NATIONAL WEATHER SERVICE STATE COLLEGE PA
1200 AM EST SAT NOV 25 2017

Note: "fair" indicates few or no clouds below 12,000 feet with no
significant weather and/or obstructions to visibility.

* = STATION THAT DOES NOT REPORT PRECIPITATION /E.G. RAIN...SNOW...ETC/
    THUNDER OR FOG.

PAZ002>004-007>009-013>016-020>023-029>032-250600-
WESTERN PENNSYLVANIA

CITY           SKY/WX    TMP DP  RH WIND       PRES   REMARKS
ERIE           PTCLDY    52  23  32 S22G31    29.61F
MEADVILLE      CLOUDY    47  21  35 S13G24    29.69F
FRANKLIN*      CLOUDY    43  21  41 S15       29.72F
NEW CASTLE     NOT AVBL
BEAVER COUNTY  NOT AVBL
BUTLER*        CLOUDY    46  20  35 S10       29.75F
PITTSBURGH INT CLOUDY    43  21  41 S8        29.75F
PITTSBURGH     PTCLDY    45  17  32 S10       29.77F
INDIANA*       CLEAR     34  25  69 CALM      29.81F
LATROBE        PTCLDY    32  23  69 CALM      29.80F
WASHINGTON CO* CLOUDY    43  21  41 S8        29.80F
$$

PAZ004>006-010>012-017>019-024>028-033>037-041-042-045-046-049>053-250600-
CENTRAL PENNSYLVANIA

CITY           SKY/WX    TMP DP  RH WIND       PRES   REMARKS
BRADFORD       PTCLDY    44  18  35 SW10G20   29.72F
DUBOIS         CLOUDY    46  17  31 SW7       29.74F
CLEARFIELD     CLOUDY    33  23  66 CALM      29.79F
JOHNSTOWN      CLEAR     45  20  36 S10       29.79F
ALTOONA        CLEAR     43  23  45 SW3       29.82F
STATE COLLEGE  CLOUDY    40  24  53 SW7       29.82F
WILLIAMSPORT   CLEAR     44  25  47 NE10G17   29.83F
SELINSGROVE    CLEAR     31  26  82 CALM      29.87F
FT INDIANTOWN  CLEAR     29  27  90 CALM      29.90F
CAPITAL CITY   CLEAR     33  26  75 CALM      29.90F
HARRISBURG     CLEAR     35  30  82 CALM      29.90F
YORK           CLEAR     29  26  89 CALM      29.90F
$$

PAZ038>040-043-044-047-048-054-055-060>062-067>071-250600-
EASTERN PENNSYLVANIA

CITY           SKY/WX    TMP DP  RH WIND       PRES   REMARKS
SCRANTON       CLOUDY    41  24  51 S8        29.84F
MOUNT POCONO   CLEAR     35  22  58 SW9       29.85F
ALLENTOWN      CLOUDY    30  23  75 CALM      29.91F
QUAKERTOWN*    CLEAR     28  27  93 CALM      29.93F
READING        CLOUDY    40  29  64 S7        29.91F
LANCASTER      CLEAR     33  27  78 E5        29.92F
COATESVILLE    CLOUDY    34  30  86 CALM      29.94S
POTTSTOWN      CLEAR     32  29  88 CALM      29.95S
BLUE BELL      CLEAR     32  30  93 CALM      29.95S
DOYLESTOWN     CLEAR     34  28  79 CALM      29.93S
WILLOW GROVE   NOT AVBL
NORTH PHILA    CLEAR     40  31  70 CALM      29.95F
PHILADELPHIA   CLEAR     39  32  76 W7        29.96S
$$




USA.gov is the U.S. government's official web portal to all federal, state and local government web resources and services.